Stations météo

Publicité
Calvi, France (7754): Température de l'air & dewpoint: 17.01.2017 01:00:00 - 23.01.2017 01:00:00 (CET)Calvi, France (7754): Température de l'air 5cm: 17.01.2017 01:00:00 - 23.01.2017 01:00:00 (CET)Calvi, France (7754): Vitesse du vent & gusts: 17.01.2017 01:00:00 - 23.01.2017 01:00:00 (CET)Calvi, France (7754): Direction du vent: 17.01.2017 01:00:00 - 23.01.2017 01:00:00 (CET)Calvi, France (7754): reduced air pressure: 17.01.2017 01:00:00 - 23.01.2017 01:00:00 (CET)Calvi, France (7754): visibility: 17.01.2017 01:00:00 - 23.01.2017 01:00:00 (CET)Calvi, France (7754): Ensoleillement: 17.01.2017 01:00:00 - 23.01.2017 01:00:00 (CET)Calvi, France (7754): Quantités de précipitations: 17.01.2017 01:00:00 - 23.01.2017 01:00:00 (CET)
Date & Time tt [°C] td [°C] tt 5cm [°C] ff [km/h] ff [knt] fx [km/h] fx [knt] dd ppp [hPa] vv [km] sd [min] rr [mm]
23.01.2017 01:00:00 10,8 4,3 9,8 31 17 69 37 ENE 1016,2 60 0 0,0
23.01.2017 00:00:00 10,6 4,9 9,6 35 19 64 35 NE 1016,8 44 0 0,2
22.01.2017 23:00:00 11,1 5,2 9,9 19 10 44 24 ENE 1017,1 60 0 0,0
22.01.2017 22:00:00 11,0 5,5 9,6 5 3 39 21 SW 1016,9 60 0 0,0
22.01.2017 21:00:00 11,8 5,4 9,7 15 8 43 23 E 1016,7 60 0 0,0
22.01.2017 20:00:00 11,0 5,9 9,1 26 14 46 25 ENE 1016,7 60 0 0,0
22.01.2017 19:00:00 10,4 6,7 8,5 12 7 30 16 ESE 1016,9 60 0 0,0
22.01.2017 18:00:00 11,0 6,3 9,9 18 10 46 25 ENE 1016,4 60 0 0,0
22.01.2017 17:00:00 10,8 6,3 10,4 16 9 56 31 ENE 1016,8 59 0 0,0
22.01.2017 16:00:00 11,2 6,7 10,9 27 15 48 26 ENE 1016,5 15 1 0,0
22.01.2017 15:00:00 12,9 6,0 14,2 28 15 45 24 NE 1015,8 30 40 0,0
22.01.2017 14:00:00 13,4 7,2 12,7 6 3 17 9 SW 1015,9 30 10 0,0
22.01.2017 13:00:00 12,3 6,1 12,4 6 3 21 11 ESE 1016,2 30 2 0,0
22.01.2017 12:00:00 11,7 5,8 10,5 9 5 27 15 SW 1016,9 59 0 0,0
22.01.2017 11:00:00 10,4 6,3 8,7 14 8 31 17 S 1017,3 60 0 0,0
22.01.2017 10:00:00 8,9 5,5 7,6 13 7 26 14 S 1017,3 20 0 0,2
22.01.2017 09:00:00 8,2 5,7 7,3 16 9 44 24 S 1018,0 10 0 0,4
22.01.2017 08:00:00 8,5 4,9 7,1 23 12 51 28 NE 1017,3 8 0 1,2
22.01.2017 07:00:00 8,7 4,7 7,3 30 16 47 26 NNE 1017,4 7 0 1,4
22.01.2017 06:00:00 8,7 4,3 7,7 22 12 51 27 NE 1017,3 14 0 0,6
22.01.2017 05:00:00 9,1 4,7 8,0 29 15 58 32 NE 1017,8 14 0 0,4
22.01.2017 04:00:00 9,1 4,5 8,2 29 16 65 35 NE 1017,9 16 0 0,2
22.01.2017 03:00:00 10,2 3,9 8,6 34 18 65 35 ENE 1017,9 57 0 0,2
22.01.2017 02:00:00 9,8 4,0 8,3 46 25 79 43 NE 1017,9 53 0 0,2
22.01.2017 01:00:00 10,1 3,8 9,0 40 22 67 36 NE 1018,7 30 0 0,0
22.01.2017 00:00:00 11,5 2,0 10,6 40 22 74 40 NNE 1018,6 36 0 0,0
21.01.2017 23:00:00 11,5 1,7 10,8 44 24 74 40 NE 1018,2 45 0 0,0
21.01.2017 22:00:00 11,9 0,3 11,1 39 21 74 40 ENE 1018,3 53 0 0,0
21.01.2017 21:00:00 12,4 1,1 11,4 41 22 80 43 ENE 1017,2 58 0 0,0
21.01.2017 20:00:00 12,3 0,1 11,4 44 24 74 40 NE 1016,9 60 0 0,0
21.01.2017 19:00:00 12,2 -0,4 11,4 37 20 74 40 ENE 1016,9 60 0 0,0
21.01.2017 18:00:00 12,5 -0,4 9,8 18 10 43 23 ENE 1016,4 60 0 0,0
21.01.2017 17:00:00 12,9 -1,1 11,6 11 6 43 23 NNW 1016,2 60 0 0,0
21.01.2017 16:00:00 12,9 -0,4 12,4 22 12 53 28 NE 1016,5 40 16 0,0
21.01.2017 15:00:00 14,6 0,1 17,0 25 14 44 24 NE 1016,5 40 60 0,0
21.01.2017 14:00:00 16,3 0,0 18,5 6 3 22 12 SSE 1017,1 40 60 0,0
21.01.2017 13:00:00 16,3 0,4 16,9 4 2 12 7 W 1018,2 40 60 0,0
21.01.2017 12:00:00 15,3 -0,9 14,4 6 3 13 7 S 1018,9 40 58 0,0
21.01.2017 11:00:00 12,3 2,4 10,6 5 3 17 9 S 1019,7 40 46 0,0
21.01.2017 10:00:00 8,8 1,9 4,7 11 6 17 9 S 1020,4 54 47 0,0
21.01.2017 09:00:00 4,6 0,5 1,7 13 7 18 10 S 1020,4 35 1 0,0
21.01.2017 08:00:00 2,8 -0,7 1,3 6 3 15 8 SSE 1020,7 35 0 0,0
21.01.2017 07:00:00 2,4 -1,0 1,2 6 3 15 8 S 1020,6 35 0 0,0
21.01.2017 06:00:00 2,6 -1,2 1,5 9 5 21 11 SSE 1020,8 56 0 0,0
21.01.2017 05:00:00 2,8 -1,0 1,0 10 5 19 10 S 1021,1 60 0 0,0
21.01.2017 04:00:00 1,8 -1,5 0,7 11 6 19 10 SSE 1021,9 55 0 0,0
21.01.2017 03:00:00 2,4 -0,9 0,5 12 7 14 8 S 1022,4 50 0 0,0
21.01.2017 02:00:00 2,3 -1,7 0,8 5 3 17 9 S 1022,8 59 0 0,0
21.01.2017 01:00:00 1,9 -1,9 0,5 13 7 16 9 S 1023,4 10 0 0,0
21.01.2017 00:00:00 2,1 -1,5 0,9 5 3 15 8 SE 1023,9 59 0 0,0
20.01.2017 23:00:00 1,8 -1,8 0,5 5 3 14 7 - 1024,2 10 0 0,0
20.01.2017 22:00:00 3,2 -1,2 1,9 7 4 14 8 SSW 1024,0 50 0 0,0
20.01.2017 21:00:00 5,4 0,0 2,1 12 6 19 10 S 1024,2 55 0 0,0
20.01.2017 20:00:00 3,9 -0,5 2,5 12 6 17 9 S 1024,2 50 0 0,0
20.01.2017 19:00:00 4,4 0,4 3,2 9 5 17 9 S 1023,8 34 0 0,0
20.01.2017 18:00:00 5,9 0,6 4,2 5 3 14 8 SW 1023,8 22 0 0,0
20.01.2017 17:00:00 8,4 2,0 7,6 9 5 11 6 S 1023,3 35 35 0,0
20.01.2017 16:00:00 14,2 1,1 14,0 0 0 6 3 N 1023,6 33 40 0,0
20.01.2017 15:00:00 12,6 2,2 13,5 4 2 10 5 W 1023,9 35 13 0,0
20.01.2017 14:00:00 12,2 2,3 12,8 5 3 10 5 W 1024,3 45 10 0,0
20.01.2017 13:00:00 12,4 2,0 13,6 6 4 14 7 NW 1024,8 45 53 0,0
20.01.2017 12:00:00 13,4 -0,3 18,8 0 0 7 4 N 1025,4 43 60 0,0
20.01.2017 11:00:00 11,2 -1,3 14,1 0 0 4 2 N 1026,0 35 60 0,0
20.01.2017 10:00:00 7,7 0,6 2,7 2 1 8 4 SSE 1026,0 35 60 0,0
20.01.2017 09:00:00 1,5 -0,9 -0,4 4 2 11 6 S 1025,8 25 11 0,0
20.01.2017 08:00:00 0,5 -2,2 -0,8 10 6 13 7 S 1025,7 25 0 0,0
20.01.2017 07:00:00 0,1 -2,4 -0,9 7 4 17 9 S 1025,5 25 0 0,0
20.01.2017 06:00:00 0,1 -2,4 -1,0 8 4 14 8 S 1025,6 19 0 0,0
20.01.2017 05:00:00 0,4 -2,3 -1,0 4 2 15 8 S 1025,7 22 0 0,0
20.01.2017 04:00:00 0,8 -1,8 -1,0 10 6 14 7 S 1025,9 24 0 0,0
20.01.2017 03:00:00 0,5 -2,2 -0,3 10 5 16 9 SSE 1026,1 27 0 0,0
20.01.2017 02:00:00 0,7 -1,9 -0,7 9 5 14 8 S 1026,0 22 0 0,0
20.01.2017 01:00:00 0,9 -2,2 0,0 5 3 13 7 SSE 1026,1 23 0 0,0
20.01.2017 00:00:00 1,1 -1,8 -0,1 9 5 12 7 S 1026,3 24 0 0,0
19.01.2017 23:00:00 1,0 -2,4 -0,3 3 2 14 8 SSE 1026,2 28 0 0,0
19.01.2017 22:00:00 0,9 -2,2 0,1 4 2 13 7 S 1025,8 32 0 0,0
19.01.2017 21:00:00 1,7 -1,9 0,7 9 5 15 8 S 1025,4 25 0 0,0
19.01.2017 20:00:00 1,8 -2,2 1,0 9 5 14 8 SSW 1024,9 20 0 0,0
19.01.2017 19:00:00 2,8 -1,9 1,7 10 5 13 7 SSW 1024,3 23 0 0,0
19.01.2017 18:00:00 5,4 -1,8 3,4 5 3 36 19 SE 1023,6 39 0 0,0
19.01.2017 17:00:00 7,8 -1,5 7,1 22 12 46 25 NE 1023,3 39 34 0,0
19.01.2017 16:00:00 9,0 -1,7 10,5 27 15 56 30 NNE 1022,7 19 60 0,0
19.01.2017 15:00:00 9,5 -1,6 11,5 35 19 59 32 NE 1022,7 30 60 0,0
19.01.2017 14:00:00 9,6 -1,2 9,6 40 22 61 33 NE 1022,5 30 60 0,0
19.01.2017 13:00:00 8,9 -1,3 9,2 37 20 63 34 NE 1022,8 30 57 0,0
19.01.2017 12:00:00 9,3 -1,2 9,7 26 14 59 32 NNE 1022,9 30 60 0,0
19.01.2017 11:00:00 8,7 -2,0 8,4 29 16 51 28 NNE 1022,7 30 9 0,0
19.01.2017 10:00:00 9,0 -2,0 7,2 22 12 40 22 NNE 1022,7 10 47 0,0
19.01.2017 09:00:00 7,3 -1,9 4,4 18 10 36 19 NNE 1023,0 10 3 0,0
19.01.2017 08:00:00 6,9 -2,3 5,2 15 8 29 16 N 1022,0 10 0 0,0
19.01.2017 07:00:00 6,9 -2,3 5,1 11 6 29 16 - 1021,6 10 0 0,0
19.01.2017 06:00:00 6,2 -1,7 5,2 19 11 36 20 N 1021,2 38 0 0,0
19.01.2017 05:00:00 6,3 -1,6 5,0 18 10 42 23 NNE 1021,0 35 0 0,0
19.01.2017 04:00:00 6,3 -1,4 4,9 29 16 44 24 NNE 1021,0 31 0 0,0
19.01.2017 03:00:00 6,0 -2,1 4,9 21 11 39 21 NNE 1020,9 37 0 0,0
19.01.2017 02:00:00 6,2 -3,2 4,7 18 10 37 20 NNE 1020,7 46 0 0,0
19.01.2017 01:00:00 7,2 -3,4 4,9 22 12 42 23 NE 1020,2 10 0 0,0
19.01.2017 00:00:00 6,7 -2,7 5,3 17 9 32 17 NNE 1020,3 41 0 0,0
18.01.2017 23:00:00 7,2 -2,8 5,6 19 10 37 20 NE 1020,4 39 0 0,0
18.01.2017 22:00:00 7,1 -2,9 6,0 18 10 47 26 NNE 1020,1 45 0 0,0
18.01.2017 21:00:00 7,5 -3,7 6,0 26 14 49 27 NE 1019,6 44 0 0,0
18.01.2017 20:00:00 7,5 -3,4 6,3 19 10 47 25 NE 1019,1 44 0 0,0
18.01.2017 19:00:00 7,6 -3,9 5,9 24 13 46 25 NE 1018,6 45 0 0,0
18.01.2017 18:00:00 7,3 -3,3 6,1 16 9 40 22 NE 1018,2 44 0 -
18.01.2017 17:00:00 7,5 -3,1 - 21 11 55 30 NNE 1017,9 20 - 0,0
18.01.2017 16:00:00 7,8 -3,4 7,0 26 14 64 35 NE 1017,6 20 0 0,0
18.01.2017 15:00:00 7,6 -1,9 7,5 21 12 46 25 NE 1017,3 15 0 0,0
18.01.2017 14:00:00 7,5 -2,0 7,4 29 16 51 27 NE 1017,1 41 0 0,0
18.01.2017 13:00:00 7,1 -1,1 6,5 29 16 58 31 NNE 1017,3 15 0 0,0
18.01.2017 12:00:00 7,2 -1,2 7,4 29 16 54 29 ENE 1017,3 8 31 -
18.01.2017 11:00:00 8,8 -2,5 - 26 14 52 28 NE 1017,1 15 - 0,0
18.01.2017 10:00:00 7,6 -3,0 6,2 23 12 51 28 NE 1016,2 54 0 0,0
18.01.2017 09:00:00 6,9 -2,8 6,0 25 14 56 30 N 1015,7 12 0 0,0
18.01.2017 08:00:00 7,3 -4,2 5,6 28 15 59 32 NE 1013,8 10 0 0,0
18.01.2017 07:00:00 7,2 -4,6 5,7 31 17 79 42 NE 1014,0 12 0 0,0
18.01.2017 06:00:00 7,4 -4,4 3,8 36 19 79 43 NE 1013,4 56 0 0,0
18.01.2017 05:00:00 5,3 -0,5 3,4 42 23 78 42 NE 1013,2 27 0 0,4
18.01.2017 04:00:00 5,5 -0,8 4,4 36 19 80 43 NE 1012,9 18 0 0,0
18.01.2017 03:00:00 6,4 -2,2 4,7 31 17 64 34 NE 1013,3 47 0 0,0
18.01.2017 02:00:00 5,5 -1,0 4,4 20 11 49 26 NE 1013,9 35 0 0,0
18.01.2017 01:00:00 5,5 -0,8 3,3 30 16 64 35 NE 1014,0 31 0 0,0
18.01.2017 00:00:00 4,4 0,2 2,8 27 15 58 31 NNE 1013,6 19 0 0,4
17.01.2017 23:00:00 3,4 0,6 2,7 23 12 48 26 N 1013,9 11 0 0,2
17.01.2017 22:00:00 3,6 0,3 2,9 27 14 57 31 NNE 1013,3 8 0 0,2
17.01.2017 21:00:00 5,7 -2,2 5,1 29 16 55 30 NE 1013,3 38 0 0,0
17.01.2017 20:00:00 6,4 -3,8 5,4 29 16 50 27 NE 1012,3 60 0 0,0
17.01.2017 19:00:00 6,1 -3,3 4,3 26 14 54 29 NE 1011,8 60 0 0,0
17.01.2017 18:00:00 4,8 -1,7 3,1 22 12 62 33 NE 1011,7 51 0 0,0
17.01.2017 17:00:00 4,4 -1,2 3,9 28 15 64 35 NE 1011,6 27 0 0,0
17.01.2017 16:00:00 5,0 -1,9 4,8 25 14 56 30 NE 1011,0 9 6 0,0
17.01.2017 15:00:00 5,0 -1,9 4,5 24 13 56 30 ENE 1010,5 10 14 0,0
17.01.2017 14:00:00 5,7 -1,7 6,1 29 16 54 29 NE 1010,2 11 25 0,0
17.01.2017 13:00:00 6,1 -3,0 6,0 21 12 49 27 NE 1010,5 8 1 0,0
17.01.2017 12:00:00 6,1 -3,3 4,0 31 17 54 29 NE 1010,0 57 1 0,0
17.01.2017 11:00:00 4,3 -1,5 3,7 25 13 53 28 NE 1010,9 7 0 0,2
17.01.2017 10:00:00 4,8 -2,8 3,6 25 13 51 27 NNE 1010,6 6 0 0,0
17.01.2017 09:00:00 3,8 -1,8 3,4 22 12 59 32 NE 1010,4 50 0 0,0
17.01.2017 08:00:00 4,4 -3,9 3,4 29 16 54 29 NE 1009,8 7 0 0,0
17.01.2017 07:00:00 3,8 -3,0 2,9 26 14 50 27 ENE 1009,1 10 0 0,0
17.01.2017 06:00:00 3,4 -2,6 2,9 21 11 54 29 ENE 1009,0 10 0 0,0
17.01.2017 05:00:00 4,1 -4,1 3,4 24 13 48 26 ENE 1008,7 10 0 0,0
17.01.2017 04:00:00 4,4 -4,1 3,1 16 9 40 22 ENE 1008,7 10 0 0,0
17.01.2017 03:00:00 4,0 -3,5 2,7 21 11 35 19 NE 1008,8 52 0 0,0
17.01.2017 02:00:00 3,9 -3,6 2,7 23 13 47 25 ENE 1008,8 60 0 0,2
17.01.2017 01:00:00 3,8 -3,7 2,2 26 14 41 22 ENE 1008,8 60 0 0,8

tt = Température de l'air
td = dewpoint
tt 5cm = Température de l'air 5cm
ff = Vitesse du vent
fx = gusts
dd = Direction du vent
ppp = reduced air pressure
vv = visibility
sd = Ensoleillement
rr = Quantités de précipitations

stations d'obs. à proximité